Location: Newark
(52.3500°N, 175.9667°E)
Time: 20:52:44
(UTC+00:00)

Transit 4A - Pass Details

Date: 22 April 2021
Orbit: 871 x 974 km, 66.8° (Epoch: 16 May)

Event Time Altitude Azimuth Distance (km) Brightness Sun altitude
Rises 16:53:54 0° 311° (NW) 3,559 10.7 -2.0°
Reaches altitude 10° 16:56:56 10° 325° (NW) 2,597 10.1 -1.6°
Maximum altitude 17:01:48 25° 19° (NNE) 1,740 10.0 -0.9°
Drops below altitude 10° 17:06:34 10° 74° (ENE) 2,545 12.5 -0.2°
Sets 17:09:31 0° 87° (E) 3,472 12.7 0.2°
